Location: ???????
(38.3360°N, 23.6977°E)
Time: 05:24:24
(UTC+00:00)

Okean 1 Rocket - Pass Details

Date: 17 November 2025
Orbit: 599 x 628 km, 82.5° (Epoch: 09 December)

Event Time Altitude Azimuth Distance (km) Brightness Sun altitude
Rises 16:05:30 0° 156° (SSE) 2,891 6.4 -10.8°
Reaches altitude 10° 16:08:02 10° 143° (SE) 1,986 5.4 -11.3°
Maximum altitude 16:11:36 24° 89° (E) 1,275 4.1 -12.0°
Enters shadow 16:14:33 13° 40° (NE) 1,799 5.0 -12.6°
